Wind_Speed
5 4 4 4 3 2 3 2 2 2 2 2 2 2 2 2 2 2 2 3 3 3 3 3 3 2 3 3 3 3 4 3 4 4 4 3 4 4 5 6 5 6 7 7 7 7 8 8 8
5 5 4 3 3 2 2 2 2 1 2 2 2 2 2 2 2 2 2 3 4 4 4 3 3 3 3 4 4 4 4 3 4 4 4 4 4 5 5 6 6 6 7 7 7 8 9 9 9
5 5 4 3 3 2 2 2 2 2 2 2 2 3 3 3 3 3 3 3 4 5 5 4 4 4 4 4 4 4 4 4 4 4 5 5 5 4 5 6 6 7 7 7 8 8 9 9 9
5 5 4 3 3 2 2 2 2 2 2 2 3 3 3 4 4 3 3 4 4 4 5 5 4 4 4 4 4 5 5 5 5 5 5 4 5 5 5 5 5 6 7 8 8 9 9 9 10
5 5 4 3 2 2 3 3 2 2 2 3 3 3 4 4 4 4 4 3 4 4 4 4 5 5 4 5 5 5 6 5 5 6 5 5 5 5 5 5 6 6 7 7 8 8 9 9 10
4 4 4 3 3 3 3 3 3 3 3 3 3 4 5 5 5 5 5 4 4 4 5 5 5 5 5 5 5 5 5 6 6 6 6 6 6 6 6 6 7 7 7 7 8 9 9 9 10
4 4 3 3 3 3 3 3 3 3 3 3 3 4 5 5 6 6 5 5 5 5 5 5 5 5 5 5 5 5 6 6 6 6 6 7 6 7 7 7 7 8 8 8 9 9 9 10 10
3 3 3 3 3 3 3 4 3 3 4 4 4 5 5 5 6 6 6 5 5 5 6 6 5 5 5 5 5 6 6 6 6 6 7 7 6 6 6 6 7 8 9 9 9 9 10 10 10
2 3 3 3 3 4 4 4 4 4 4 4 5 5 5 5 6 6 6 5 5 5 5 5 5 5 5 6 6 6 6 6 6 6 7 6 6 6 6 7 6 7 8 9 9 9 10 9 9
2 3 3 3 4 4 4 4 5 4 4 5 5 5 5 5 5 6 6 6 6 5 5 5 5 4 5 5 5 5 5 5 5 6 6 5 5 6 6 6 6 6 7 8 8 8 9 9 9
2 2 3 3 4 5 5 4 4 4 4 5 5 5 5 5 5 6 6 6 6 5 5 5 4 5 5 5 4 4 4 4 4 4 4 4 4 5 5 6 6 6 6 7 8 8 9 9 8
2 3 3 4 4 5 5 5 4 4 4 5 5 5 5 5 5 6 6 6 5 5 5 5 5 5 5 4 4 3 3 3 3 3 4 4 4 5 5 5 6 6 6 6 7 7 7 7 7
3 3 4 4 5 5 6 5 5 5 5 5 5 5 5 5 5 6 6 6 6 5 6 6 5 5 4 4 4 4 3 3 3 3 3 4 5 5 5 5 5 5 6 6 6 6 6 6 6
4 4 4 5 5 6 6 5 5 5 5 6 6 5 5 6 5 6 6 6 5 5 6 6 5 5 5 4 4 3 3 3 3 4 4 4 4 4 4 4 4 4 5 5 5 5 5 5 6
4 4 5 5 5 6 6 6 6 6 6 6 6 6 6 7 6 6 6 6 6 6 6 6 5 5 5 4 3 3 3 3 3 4 4 4 4 4 4 4 4 4 4 4 4 4 4 5 5
4 5 5 5 5 6 6 6 6 6 6 6 6 6 6 7 7 6 6 5 6 6 6 6 5 5 4 4 3 4 3 3 3 3 4 3 4 4 4 4 4 4 4 4 4 3 3 4 4
4 5 5 5 6 6 6 6 6 6 6 6 6 6 6 7 6 6 5 5 5 5 6 5 5 5 4 4 4 4 4 4 4 4 4 4 4 4 4 3 3 3 3 3 3 3 4 3 3
4 5 5 6 6 6 6 6 6 6 6 6 6 6 6 6 5 5 5 6 6 5 5 5 5 5 5 5 5 4 4 5 4 4 5 4 4 4 4 3 3 3 2 2 3 3 3 3 3
5 5 5 6 6 6 6 6 6 6 6 6 6 6 6 6 5 5 5 5 5 5 6 5 5 5 5 5 5 5 5 5 5 5 4 4 4 4 4 3 3 3 2 3 2 3 3 3 3
6 6 6 6 6 6 6 6 6 6 6 6 6 6 6 6 6 5 4 5 5 6 6 5 5 5 5 5 5 5 5 6 6 6 5 5 5 4 3 3 3 2 2 2 2 3 3 3 3
7 7 6 6 6 6 6 6 6 6 6 6 7 7 7 7 6 5 5 5 6 6 6 5 5 6 5 5 5 5 5 6 6 5 5 5 5 4 3 3 3 3 3 2 2 3 3 3 3
8 8 8 7 7 6 6 6 6 6 6 6 7 7 7 7 6 6 6 6 6 6 6 6 6 5 5 5 5 5 6 6 6 6 5 5 5 4 3 3 3 4 3 3 3 4 3 3 4
10 9 9 8 7 7 6 6 5 6 6 6 6 7 7 7 6 6 6 7 7 6 6 6 6 5 6 6 6 6 5 5 5 5 5 5 4 4 3 3 3 4 4 4 4 4 4 4 4
11 10 10 9 8 7 7 6 6 6 7 6 6 6 7 6 6 7 7 7 7 7 6 7 7 6 6 6 6 6 6 5 5 5 5 5 4 4 3 3 4 4 3 4 4 4 4 4 4
11 11 10 10 9 9 8 7 6 7 7 7 7 7 7 7 7 8 7 7 7 8 8 7 7 7 7 7 6 6 6 6 5 5 5 5 5 5 4 4 4 4 4 4 3 3 4 4 4
12 12 11 11 11 10 9 8 7 7 7 7 8 8 8 8 8 8 8 8 8 8 8 8 8 7 7 7 7 7 6 6 6 6 5 5 5 5 5 5 5 5 4 4 4 4 4 4 4
14 13 13 13 12 11 10 9 9 8 8 8 8 8 8 9 9 9 10 10 9 9 9 9 9 8 8 7 7 7 7 7 6 6 6 6 5 5 5 5 6 5 5 5 5 5 5 5 5
16 15 15 14 14 13 12 11 10 9 9 8 8 8 9 9 9 9 10 10 10 10 10 10 10 10 9 9 8 8 8 7 7 7 7 6 6 6 6 6 6 6 6 5 5 6 6 6 6
17 17 17 16 15 14 13 13 11 11 10 10 10 10 10 10 10 10 11 11 11 11 11 11 11 11 10 10 10 10 9 8 8 8 8 8 7 7 7 7 6 6 6 6 6 6 6 6 6
20 19 18 18 17 16 16 15 13 13 12 12 12 11 11 12 12 12 13 12 11 12 12 12 12 12 12 11 11 11 10 10 9 8 8 9 8 8 8 7 7 7 7 7 7 7 7 6 6
Wind_Direction
60 63 64 60 56 50 31 22 27 50 55 54 41 32 21 4 352 348 348 342 329 322 321 302 300 293 288 279 280 286 290 275 247 251 253 252 239 237 239 243 244 234 228 231 231 228 225 227 226
54 58 59 51 44 20 8 10 29 30 20 14 12 360 348 347 349 347 344 329 322 319 318 304 294 289 286 284 282 284 285 280 260 251 251 247 241 239 240 241 243 242 238 236 236 230 230 232 231
54 53 50 43 36 21 9 3 350 337 326 326 332 324 326 330 319 325 326 322 318 316 310 298 290 291 285 278 276 276 277 276 270 263 261 253 244 243 244 244 244 246 243 238 237 237 235 237 234
57 53 47 42 43 37 17 357 328 328 319 319 326 325 323 326 313 304 310 312 313 314 307 296 293 295 285 280 274 271 270 271 266 264 266 257 253 246 250 247 246 250 246 238 234 237 238 238 237
55 50 43 38 33 24 11 355 343 332 327 325 335 334 334 328 320 311 313 307 309 313 306 299 299 295 291 286 280 277 271 265 259 264 267 265 263 259 255 251 246 246 250 244 238 238 239 239 238
53 43 38 27 16 4 354 346 342 335 328 323 329 330 330 331 324 315 308 310 309 309 305 298 291 289 296 287 279 281 274 265 262 260 261 266 264 262 261 256 250 246 248 252 247 242 242 241 241
44 37 28 18 4 349 341 336 331 331 326 323 322 322 326 324 323 322 310 305 307 309 307 302 293 288 295 290 279 278 273 270 267 263 265 268 262 264 261 261 254 248 249 254 255 245 244 243 242
38 32 26 12 4 351 340 339 336 329 322 318 316 315 320 321 325 327 322 315 308 306 306 305 302 298 293 289 283 276 270 268 266 264 264 265 260 262 264 267 262 251 247 250 249 242 240 243 244
29 23 17 10 359 351 343 338 337 328 319 316 315 314 318 320 324 327 326 323 319 315 310 307 301 297 293 288 284 275 270 269 265 266 265 263 260 258 262 265 262 252 250 252 252 248 244 246 244
14 6 0 2 354 349 343 336 333 329 321 319 315 313 318 322 324 328 328 322 320 318 313 311 300 297 296 291 287 280 274 272 266 265 263 262 259 258 263 267 268 266 260 257 255 247 246 249 242
359 354 352 356 360 356 347 337 332 325 317 320 320 317 320 324 323 326 324 318 318 317 312 309 303 301 302 299 293 290 283 273 265 262 261 258 256 261 268 270 270 274 267 256 251 251 251 249 242
334 341 344 345 351 349 347 342 342 341 333 329 328 326 326 330 331 329 327 324 322 320 314 309 305 302 299 300 295 287 286 279 271 267 265 259 260 268 273 276 273 272 269 260 251 250 250 246 245
323 333 338 342 344 345 346 347 344 343 335 330 330 326 324 323 327 329 326 325 321 320 315 308 302 296 295 298 294 290 291 282 281 281 274 265 267 271 270 273 282 279 273 264 256 252 247 240 242
320 326 330 332 340 344 345 347 344 338 334 328 326 323 323 321 318 322 321 319 316 317 317 314 305 292 294 290 293 297 291 286 283 287 280 274 276 276 276 273 279 277 271 265 257 256 253 244 245
312 318 322 325 332 338 340 343 341 337 334 331 327 322 323 317 311 314 315 312 313 313 314 315 308 297 293 284 290 292 292 286 279 284 287 275 275 280 278 271 275 277 273 264 256 246 252 252 246
304 311 317 320 325 332 333 336 333 334 333 332 330 325 316 311 309 309 309 305 308 308 310 317 314 301 284 273 284 291 295 291 286 279 288 281 283 282 275 273 279 274 263 255 253 246 256 254 245
301 307 310 316 324 328 330 333 330 329 330 332 332 326 320 319 312 305 308 305 307 306 305 310 309 301 288 284 286 288 288 293 295 289 287 281 286 283 272 273 277 268 254 248 247 251 256 256 250
289 299 308 314 319 323 327 331 330 329 331 332 332 330 325 323 314 303 303 306 306 308 304 302 304 301 295 291 284 282 285 290 291 289 287 282 283 286 272 269 272 260 249 249 253 259 262 258 254
276 292 302 306 311 316 319 322 323 326 327 327 326 325 322 313 312 304 298 303 306 306 304 302 302 301 297 292 290 286 283 285 288 290 286 283 286 285 280 269 262 257 255 264 268 259 261 249 248
273 282 293 300 307 311 314 317 319 322 323 322 322 323 321 317 309 309 302 300 305 299 300 301 296 297 300 302 300 292 285 286 286 285 283 282 287 288 281 273 256 247 258 263 253 260 256 252 239
272 274 283 292 302 308 309 309 314 318 317 319 320 322 325 319 315 303 306 307 308 304 302 306 303 298 293 300 303 295 286 282 281 281 285 281 279 281 271 261 255 251 258 256 256 254 246 245 238
271 273 277 283 291 300 307 304 309 312 313 315 318 318 318 313 309 307 302 303 306 306 306 306 306 301 296 298 303 299 289 281 277 279 283 280 273 269 263 259 259 257 248 253 257 254 253 256 251
269 273 275 279 284 293 301 299 303 305 308 310 313 315 313 308 302 300 295 293 296 299 305 307 305 301 298 299 301 298 289 281 277 276 278 275 269 263 264 262 262 254 241 244 248 257 263 261 255
266 272 273 275 279 284 290 291 291 293 301 303 304 309 312 307 299 295 293 290 290 292 298 300 300 300 299 298 301 297 286 278 276 279 276 269 260 258 258 258 262 260 250 240 242 253 259 262 259
263 269 272 274 276 279 281 282 288 287 294 296 296 299 303 306 301 294 288 286 288 290 290 293 293 295 298 297 296 295 287 280 277 278 274 265 258 256 254 255 257 259 253 247 246 247 251 255 260
262 264 265 268 271 274 272 275 284 287 291 295 297 296 296 297 299 294 290 288 290 291 287 286 287 290 296 297 294 292 287 281 277 276 272 266 259 253 249 249 254 255 252 251 250 253 252 254 257
258 258 260 261 265 268 267 272 281 285 288 293 295 295 293 293 296 296 294 290 290 289 288 285 284 287 292 292 291 288 288 281 278 274 270 266 258 250 249 250 251 257 254 252 251 254 257 260 261
254 256 255 257 261 265 265 268 274 280 281 286 286 288 289 290 293 297 298 296 291 289 289 286 283 285 287 286 286 285 284 283 278 268 262 262 258 254 253 254 256 260 254 252 253 258 260 264 265
252 253 254 256 258 262 266 267 271 275 277 281 281 282 286 288 290 293 295 296 292 289 290 289 281 283 285 284 282 281 281 281 278 268 262 260 258 259 260 259 258 257 256 253 254 257 260 264 265
250 251 253 255 258 260 263 265 269 271 274 277 279 280 282 284 285 288 292 293 290 286 286 288 285 283 283 283 280 277 277 277 275 267 261 259 258 259 261 258 258 258 259 261 260 261 260 261 265
Height
5893 5893 5894 5895 5896 5896 5894 5894 5894 5893 5893 5893 5892 5891 5891 5891 5891 5892 5889 5887 5886 5885 5884 5884 5883 5882 5882 5881 5880 5880 5879 5878 5878 5878 5878 5878 5878 5878 5878 5879 5879 5879 5879 5879 5879 5879 5880 5880 5881
5894 5894 5895 5895 5895 5895 5895 5894 5893 5893 5893 5892 5892 5891 5891 5890 5889 5889 5887 5887 5886 5885 5884 5883 5882 5881 5881 5880 5879 5879 5878 5878 5877 5877 5877 5877 5877 5877 5877 5877 5878 5878 5878 5878 5877 5878 5878 5879 5879
5894 5894 5895 5895 5894 5894 5894 5893 5893 5892 5892 5892 5891 5891 5890 5889 5889 5888 5887 5886 5885 5884 5883 5882 5881 5880 5879 5879 5878 5878 5877 5877 5877 5876 5876 5875 5876 5876 5876 5876 5876 5876 5876 5876 5876 5876 5877 5877 5878
5895 5895 5895 5895 5894 5894 5893 5893 5892 5892 5892 5891 5891 5890 5889 5888 5887 5887 5886 5885 5884 5883 5882 5881 5880 5879 5878 5878 5877 5877 5876 5876 5876 5875 5875 5875 5875 5875 5875 5875 5875 5875 5874 5874 5875 5875 5875 5876 5876
5895 5895 5895 5894 5893 5893 5893 5892 5892 5891 5891 5890 5890 5889 5888 5888 5886 5885 5885 5884 5883 5882 5881 5880 5879 5878 5877 5877 5876 5875 5875 5875 5875 5874 5874 5874 5874 5874 5873 5873 5873 5873 5873 5873 5873 5873 5874 5874 5875
5895 5895 5895 5894 5893 5893 5892 5892 5891 5891 5890 5890 5889 5888 5888 5887 5886 5885 5884 5883 5882 5881 5880 5879 5878 5877 5877 5876 5875 5874 5874 5874 5873 5873 5873 5873 5873 5872 5872 5872 5872 5872 5872 5872 5872 5872 5872 5872 5873
5896 5895 5894 5894 5893 5893 5892 5891 5890 5890 5889 5889 5888 5888 5887 5886 5885 5884 5883 5882 5881 5880 5879 5878 5876 5875 5875 5875 5874 5873 5873 5872 5872 5872 5872 5872 5871 5871 5871 5871 5870 5870 5870 5870 5870 5870 5870 5871 5871
5895 5896 5894 5894 5893 5893 5892 5891 5890 5889 5889 5888 5888 5887 5886 5885 5884 5883 5882 5881 5880 5879 5878 5877 5876 5875 5874 5874 5873 5872 5872 5871 5871 5871 5871 5870 5870 5870 5869 5869 5869 5868 5868 5868 5868 5869 5869 5869 5869
5895 5896 5894 5894 5893 5892 5891 5890 5889 5889 5888 5887 5886 5886 5885 5884 5883 5882 5881 5880 5879 5878 5877 5876 5875 5874 5873 5872 5872 5871 5870 5870 5870 5869 5869 5869 5869 5868 5868 5868 5867 5867 5867 5867 5867 5867 5867 5867 5868
5895 5895 5894 5893 5892 5891 5890 5889 5889 5888 5887 5886 5886 5885 5884 5883 5882 5881 5880 5879 5878 5877 5876 5875 5874 5873 5872 5871 5870 5870 5869 5869 5868 5868 5868 5868 5867 5867 5867 5867 5866 5865 5865 5865 5865 5865 5865 5866 5866
5894 5894 5893 5892 5891 5891 5890 5889 5888 5887 5886 5886 5885 5884 5883 5882 5881 5880 5879 5878 5877 5876 5875 5874 5873 5872 5871 5870 5869 5869 5868 5868 5867 5867 5867 5867 5866 5866 5866 5866 5865 5864 5864 5864 5864 5864 5864 5864 5864
5893 5893 5892 5891 5891 5890 5889 5888 5887 5886 5886 5885 5884 5883 5882 5881 5880 5879 5878 5877 5876 5875 5874 5874 5873 5872 5870 5870 5869 5868 5868 5867 5867 5866 5866 5866 5866 5865 5865 5864 5864 5863 5863 5863 5863 5862 5863 5862 5863
5893 5892 5891 5891 5890 5889 5888 5888 5887 5885 5884 5883 5883 5882 5881 5880 5879 5878 5877 5876 5875 5874 5873 5873 5872 5871 5870 5869 5868 5868 5867 5866 5866 5866 5865 5865 5865 5865 5864 5864 5863 5862 5862 5862 5861 5861 5861 5862 5862
5892 5891 5891 5890 5889 5888 5888 5887 5886 5885 5884 5883 5882 5881 5880 5879 5878 5877 5876 5875 5875 5874 5873 5872 5871 5870 5869 5868 5867 5867 5866 5866 5865 5865 5865 5864 5864 5864 5863 5863 5862 5862 5861 5861 5861 5861 5861 5861 5861
5891 5891 5890 5889 5888 5888 5887 5886 5885 5884 5883 5882 5881 5880 5879 5878 5877 5876 5875 5874 5874 5873 5872 5871 5870 5869 5868 5868 5867 5866 5866 5865 5865 5865 5864 5863 5863 5863 5862 5862 5862 5861 5860 5860 5860 5860 5860 5860 5860
5890 5890 5890 5889 5888 5887 5888 5886 5885 5883 5882 5881 5880 5879 5878 5877 5876 5875 5874 5874 5873 5872 5871 5870 5869 5868 5868 5867 5866 5866 5865 5865 5864 5864 5863 5863 5862 5862 5861 5861 5861 5860 5860 5859 5860 5859 5859 5859 5859
5889 5889 5888 5888 5887 5886 5886 5885 5883 5882 5881 5880 5879 5878 5877 5876 5875 5874 5874 5873 5872 5871 5870 5869 5868 5868 5867 5866 5866 5865 5865 5864 5863 5863 5862 5862 5861 5861 5861 5860 5860 5859 5859 5859 5859 5859 5858 5858 5858
5888 5888 5887 5887 5886 5885 5884 5883 5882 5881 5880 5879 5878 5877 5876 5875 5874 5873 5873 5872 5871 5870 5870 5868 5868 5867 5866 5866 5865 5864 5864 5863 5863 5862 5862 5861 5860 5860 5859 5859 5859 5858 5858 5858 5858 5858 5858 5857 5857
5887 5886 5886 5885 5885 5884 5883 5882 5881 5880 5879 5878 5877 5876 5875 5874 5873 5873 5872 5871 5871 5870 5869 5868 5867 5866 5865 5865 5864 5864 5863 5863 5862 5861 5861 5860 5860 5859 5859 5858 5858 5858 5857 5857 5857 5857 5857 5857 5857
5885 5885 5884 5884 5883 5883 5882 5881 5880 5879 5879 5878 5876 5875 5874 5873 5872 5872 5871 5871 5870 5869 5868 5867 5866 5866 5865 5864 5863 5863 5862 5862 5861 5860 5860 5859 5859 5858 5858 5857 5857 5857 5857 5857 5856 5856 5856 5856 5856
5883 5883 5883 5882 5882 5881 5881 5881 5880 5879 5878 5877 5876 5874 5873 5872 5872 5871 5870 5870 5869 5868 5867 5866 5866 5865 5864 5863 5863 5862 5861 5860 5860 5859 5859 5858 5857 5857 5857 5857 5856 5856 5856 5856 5855 5855 5855 5855 5855
5880 5881 5880 5880 5880 5880 5881 5880 5879 5877 5877 5876 5875 5873 5872 5871 5871 5870 5869 5869 5868 5867 5866 5866 5865 5864 5863 5863 5862 5861 5860 5859 5859 5858 5857 5857 5856 5856 5856 5856 5856 5855 5855 5855 5855 5855 5854 5855 5854
5878 5878 5878 5878 5878 5879 5879 5878 5879 5876 5876 5875 5874 5872 5871 5870 5870 5869 5868 5868 5867 5866 5866 5865 5864 5863 5863 5862 5861 5860 5859 5858 5857 5857 5856 5856 5855 5855 5855 5855 5855 5854 5854 5854 5854 5854 5854 5854 5854
5875 5876 5876 5876 5876 5877 5877 5877 5877 5875 5874 5873 5872 5871 5870 5869 5868 5868 5867 5866 5866 5865 5865 5864 5863 5862 5861 5860 5860 5859 5858 5857 5856 5856 5855 5855 5855 5854 5854 5854 5854 5854 5854 5854 5853 5853 5853 5853 5853
5873 5874 5874 5874 5874 5875 5875 5874 5875 5873 5872 5871 5870 5870 5869 5868 5867 5866 5866 5865 5864 5864 5863 5862 5862 5861 5860 5859 5858 5857 5857 5856 5855 5855 5854 5854 5853 5853 5853 5853 5853 5853 5853 5853 5853 5853 5852 5852 5851
5869 5871 5872 5873 5872 5872 5872 5872 5872 5871 5870 5869 5868 5868 5867 5866 5865 5865 5864 5863 5863 5862 5862 5861 5860 5860 5859 5858 5857 5856 5855 5855 5854 5853 5853 5853 5852 5852 5852 5853 5853 5852 5852 5852 5852 5852 5851 5851 5851
5866 5866 5868 5868 5868 5869 5869 5870 5869 5868 5868 5867 5866 5866 5865 5864 5864 5863 5862 5862 5861 5860 5860 5859 5858 5858 5857 5856 5855 5855 5854 5853 5853 5852 5852 5851 5851 5851 5851 5851 5852 5851 5851 5851 5851 5851 5850 5850 5850
5862 5862 5863 5864 5865 5866 5866 5867 5867 5866 5865 5865 5864 5863 5863 5862 5862 5861 5860 5859 5859 5858 5857 5857 5856 5856 5855 5854 5854 5853 5852 5852 5851 5850 5850 5850 5850 5850 5850 5850 5850 5850 5850 5850 5850 5849 5849 5849 5848
5857 5858 5859 5860 5861 5862 5863 5865 5863 5863 5862 5862 5861 5861 5860 5860 5859 5858 5858 5857 5856 5856 5855 5854 5854 5853 5853 5852 5852 5851 5850 5850 5849 5849 5848 5848 5848 5848 5848 5848 5848 5848 5848 5848 5848 5848 5847 5847 5847
5851 5853 5854 5856 5856 5857 5858 5862 5859 5859 5859 5858 5858 5858 5857 5857 5856 5855 5855 5854 5853 5853 5852 5852 5851 5851 5850 5850 5849 5848 5848 5847 5847 5846 5846 5846 5846 5846 5846 5846 5847 5847 5847 5846 5846 5846 5846 5845 5845